カタログに戻る

BREEZE-M DEB

運用中HEO
NORAD 32032·DEBRIS·🇷🇺 Russia

打ち上げ Feb 28, 2006 から Baikonur Cosmodrome

Loading…

次のパス (今後24時間)

TLE

最新Source: Space-Track

元期: Sep 14, 2026, 05:22 UTC

1 32032U 06006K   26257.22421090  .00000044  00000-0  82585-4 0  9994
2 32032  51.3666 232.0227 4485007 210.7461 112.9753  6.19864542406302

AllMySatでBREEZE-M DEBをリアルタイム追跡

Download on the App Store